Weather History for Selinsgrove, PA

Change the Weather History Date:

Monday, February 10, 2014

  Actual Average (KIPT) Record (KIPT)
Temperature  
Mean Temperature 13 °F 29 °F  
Max Temperature 25 °F 37 °F 60 °F (2001)
Min Temperature 1 °F 21 °F -14 °F (1899)
Degree Days  
Heating Degree Days 52 36  
Month to date heating degree days 369  
Since 1 July heating degree days 3848  
Cooling Degree Days 0 0  
Month to date cooling degree days 0  
Year to date cooling degree days 0  
Moisture  
Dew Point 6 °F    
Average Humidity 63    
Maximum Humidity 89    
Minimum Humidity 45    
Precipitation  
Precipitation 0.00 in 0.08 in 0.87 in (1970)
Month to date precipitation 0.84  
Year to date precipitation 3.54  
Snow  
Snow 0.00 in - - ()
Month to date snowfall  
Since 1 July snowfall  
Snow Depth -    
Sea Level Pressure  
Sea Level Pressure 30.22 in    
Wind  
Wind Speed 6 mph (WNW)    
Max Wind Speed 12 mph    
Max Gust Speed 25 mph    
Visibility 9 miles    
Events Snow    
T = Trace of Precipitation, MM = Missing Value Source: NWS Daily Summary

Daily Weather History Graph

Daily Weather History Graph

Search for Another Location

Airport:

Trip Planner

Search our weather history database for the weather conditions in past years. The results will help you decide how hot, cold, wet, or windy it might be!

Date:

Astronomy

Feb. 10, 2014 Rise Set
Actual Time 7:07 AM EST 5:36 PM EST
Civil Twilight 6:39 AM EST 6:04 PM EST
Nautical Twilight 6:07 AM EST 6:36 PM EST
Astronomical Twilight 5:35 AM EST 7:08 PM EST
Moon 2:02 PM EST (2/10) 4:00 AM EST (2/10)
Length of Visible Light 11h 25m
Length of Day
10h 28m
Waxing Gibbous, 84% of the Moon is Illuminated
Feb 10
Waxing Gibbous
Feb 14
Full
Feb 22
Last Quarter
Mar 1
New
Mar 8
First Quarter

Hourly Weather History & Observations

Time (EST) Temp. Windchill Dew Point Humidity Pressure Visibility Wind Dir Wind Speed Gust Speed Precip Events Conditions
12:15 AM 19.9 °F 14.9 °F 17.1 °F 89% 30.07 in 3.0 mi SSW 3.5 mph - N/A   Overcast
12:53 AM 24.1 °F 13.1 °F 10.0 °F 55% 30.10 in 7.0 mi WNW 11.5 mph 25.3 mph 0.00 in Snow Light Snow
1:53 AM 23.0 °F 12.4 °F 9.0 °F 55% 30.11 in 10.0 mi WNW 10.4 mph - 0.00 in   Overcast
2:53 AM 21.9 °F 14.5 °F 10.0 °F 60% 30.12 in 9.0 mi NW 5.8 mph - 0.00 in Snow Light Snow
3:53 AM 19.9 °F 11.1 °F 10.0 °F 65% 30.14 in 10.0 mi WNW 6.9 mph - 0.00 in   Overcast
4:53 AM 18.0 °F 7.7 °F 5.0 °F 57% 30.16 in 10.0 mi NW 8.1 mph 18.4 mph N/A   Clear
5:53 AM 18.0 °F 7.7 °F 5.0 °F 57% 30.18 in 10.0 mi WNW 8.1 mph - N/A   Clear
6:53 AM 12.9 °F - 3.9 °F 67% 30.20 in 10.0 mi Calm Calm - N/A   Clear
7:53 AM 5.0 °F -2.1 °F -0.0 °F 80% 30.23 in 8.0 mi WNW 3.5 mph - N/A   Clear
8:53 AM 17.1 °F 10.0 °F 5.0 °F 59% 30.25 in 10.0 mi Variable 4.6 mph - N/A   Clear
9:53 AM 21.0 °F 11.4 °F 7.0 °F 55% 30.25 in 10.0 mi West 8.1 mph - N/A   Clear
10:53 AM 21.9 °F 13.4 °F 7.0 °F 53% 30.25 in 10.0 mi Variable 6.9 mph - 0.00 in   Clear
11:53 AM 25.0 °F 19.3 °F 7.0 °F 46% 30.24 in 10.0 mi WNW 4.6 mph - 0.00 in   Clear
12:53 PM 25.0 °F 16.3 °F 6.1 °F 45% 30.22 in 10.0 mi WNW 8.1 mph - 0.00 in   Overcast
1:53 PM 25.0 °F 17.1 °F 6.1 °F 45% 30.20 in 10.0 mi Variable 6.9 mph - 0.00 in   Overcast
2:53 PM 25.0 °F 17.1 °F 8.1 °F 49% 30.21 in 10.0 mi WNW 6.9 mph - N/A   Mostly Cloudy
3:53 PM 25.0 °F 18.1 °F 7.0 °F 46% 30.22 in 10.0 mi WNW 5.8 mph - N/A   Overcast
4:53 PM 25.0 °F 16.3 °F 7.0 °F 46% 30.23 in 10.0 mi WNW 8.1 mph - N/A   Mostly Cloudy
5:53 PM 21.9 °F 17.2 °F 7.0 °F 53% 30.25 in 10.0 mi West 3.5 mph - N/A   Scattered Clouds
6:53 PM 12.9 °F - 5.0 °F 71% 30.28 in 10.0 mi Calm Calm - N/A   Clear
7:53 PM 10.0 °F - 5.0 °F 80% 30.29 in 9.0 mi Calm Calm - N/A   Clear
8:53 PM 6.1 °F - 1.9 °F 83% 30.30 in 7.0 mi Calm Calm - N/A   Clear
9:53 PM 1.9 °F - -0.9 °F 88% 30.32 in 6.0 mi Calm Calm - N/A   Clear
10:53 PM 1.0 °F - -2.9 °F 83% 30.33 in 5.0 mi Calm Calm - N/A   Partly Cloudy
11:53 PM 3.0 °F - -2.0 °F 80% 30.34 in 5.0 mi Calm Calm - N/A   Haze